AirNav   Get $300 off a Bose A20
 
 802 users online  

MO13 B and S Farms Airfield
Anderson, Missouri, USA

GOING TO ANDERSON?


FAA INFORMATION EFFECTIVE 25 APRIL 2019

Location

FAA Identifier: MO13
Lat/Long: 36-38-25.5600N / 094-29-21.6500W
36-38.426000N / 094-29.360833W
36.6404333 / -94.4893472
(estimated)
Elevation: 1143 ft. / 348 m (estimated)
From city: 3 miles W of ANDERSON, MO
Time zone: UTC -5 (UTC -6 during Standard Time)
Zip code: 64831

Airport Operations

Airport use: Private use. Permission required prior to landing
Activation date: 09/2016
Control tower: no
ARTCC: KANSAS CITY CENTER
FSS: COLUMBIA FLIGHT SERVICE STATION
Attendance: UNATNDD
Wind indicator: lighted
Segmented circle: no

Airport Communications

WX AWOS-3 at GMJ (12 nm W): 119.025 (918-786-8350)

Nearby radio navigation aids

VOR radial/distance  VOR name  Freq  Var
EOSr185/12.4NEOSHO VOR/DME117.3007E
RZCr319/29.6RAZORBACK VORTAC116.4004E

 
NDB name  Hdg/Dist  Freq  Var  ID
SILOAM SPRINGS356/27.128404ESLG ... .-.. --.

Airport Services

Runway Information

Runway 9/27

Dimensions: 2582 x 50 ft. / 787 x 15 m
Surface: turf, in good condition
Runway edge lights: non-standard
LED LIGHTING EVERY 250 FT.
RUNWAY 9  RUNWAY 27
Traffic pattern: leftleft

Airport Ownership and Management from official FAA records

Ownership: Privately-owned
Owner: BRYAN BEAUFORD
1007 BLACKFOOT HOLLOW RD.
ANDERSON, MO 64831
Phone 417-456-1376
Manager: BRYAN BEAUFORD
1007 BLACKFOOT HOLLOW RD.
ANDERSON, MO 64831
Phone 417-456-1316

Instrument Procedures

There are no published instrument procedures at MO13.

Some nearby airports with instrument procedures:

KEOS - Neosho Hugh Robinson Airport (11 nm NE)
KGMJ - Grove Municipal Airport (12 nm W)
5M5 - Crystal Lake Airport (18 nm S)
KVBT - Bentonville Municipal Airport/Louise M Thaden Field (22 nm SE)
KXNA - Northwest Arkansas Regional Airport (23 nm S)
 
Loc | Ops | Rwys | IFR | FBO | Links
Com | Nav | Svcs | Stats | Notes
Aerial photo
No photo
 
Airport distance calculator
Flying to B and S Farms Airfield? Find the distance to fly.

From to MO13

Sunrise and sunset
Times for 19-May-2019
 Local
(UTC-5)
 Zulu
(UTC)
Morning civil twilight05:3910:39
Sunrise06:0911:09
Sunset20:2001:20
Evening civil twilight20:4901:49

Current date and time
Zulu (UTC)  19-May-2019 13:35:55
Local (UTC-5)  19-May-2019 08:35:55
 
METAR
KEOS 
11nm NE 
SuperAWOS
191255Z AUTO 00000KT 10SM 14/14 A2979
KGMJ 
12nm W 
191315Z AUTO 25007KT 10SM CLR 15/12 A2981 RMK AO2
KVBT 
22nm SE 
191312Z AUTO 26006G14KT 10SM SCT022 SCT032 16/14 A2983 RMK AO2
TAF
KXNA 
23nm SE 
191224Z 1912/2012 24006KT P6SM BKN015 TEMPO 1912/1914 OVC005 FM191400 29012KT P6SM SCT025 BKN040 FM191800 30010KT P6SM SCT050 FM200000 VRB03KT P6SM SCT250
KROG 
26nm SE 
191225Z 1912/2012 24010KT P6SM BKN015 TEMPO 1912/1915 OVC005 FM191500 29012KT P6SM SCT020 BKN040 FM191800 30010KT P6SM SCT050 FM200000 VRB04KT P6SM SCT250
NOTAMs
Click for the latest NOTAMs
NOTAMs are issued by the DoD/FAA and will open in a separate window not controlled by AirNav.

 

 
 

Would you like to see your business listed on this page?

 If your business provides an interesting product or service to pilots, flight crews, aircraft, or users of the B and S Farms Airfield, you should consider listing it here.  To start the listing process, click on the button below
 
Add a business
 

Other Pages about B and S Farms Airfield

Update a link
 
Copyright © AirNav, LLC. All rights reserved. Privacy Policy  Contact